Location: Shepherdstown, WV
(39.4326°N, 77.8042°W)
Time: 04:27:37
(UTC-04:00)

Vanguard 3 - Pass Details

Date: 07 August 2021
Orbit: 510 x 3260 km, 33.3° (Epoch: 21 September)

Event Time Altitude Azimuth Distance (km) Brightness Sun altitude
Rises 15:05:38 0° 202° (SSW) 3,860 11.0 56.8°
Reaches altitude 10° 15:08:29 10° 188° (S) 3,238 10.7 56.4°
Maximum altitude 15:15:08 25° 136° (SE) 2,967 10.3 55.3°
Drops below altitude 10° 15:25:02 10° 89° (E) 5,005 11.0 53.7°
Sets 15:30:48 0° 79° (E) 6,479 11.4 52.7°
